Location: Ceska republika
(50.0000°N, 15.0000°E)
Time: 11:30:43
(UTC+02:00)

ISS - Pass Details

Date: 14 October 2017
Orbit: 401 x 408 km, 51.6° (Epoch: 19 October)

Event Time Altitude Azimuth Distance (km) Brightness Sun altitude
Rises 19:13:55 0° 285° (WNW) 2,326 1.7 -10.9°
Reaches altitude 10° 19:16:14 10° 271° (W) 1,464 0.6 -11.3°
Maximum altitude 19:18:56 24° 216° (SW) 898 -1.7 -11.7°
Drops below altitude 10° 19:21:37 10° 161° (SSE) 1,460 -1.2 -12.2°
Enters shadow 19:22:46 - 152° (SSE) 1,871 -0.8 -12.3°
